ATLAS 5 CENTAUR DEB, 55858

Orbit data source: Space-Track

ATLAS 5 CENTAUR DEB, 55858 is space debris in HEO originally from a launch on Wed, 17 Oct 2018 UTC launched from the Air Force Eastern Test Range (AFETR). Debris objects in space refer to the collection of defunct objects orbiting the Earth. Examples of debris include non-operational satellites, rocket bodies, and fragments generated from explosions, collisions, or faulty payload assembly.

Loading next visibility...
Identifier
55858, 2018-079HL
Orbit
HEO
Country
Flag of USUS
Related business
Flag of USUnited Launch Alliance/Lockheed Martin (US)
Manufacturer
ULA Decatur
Mission
Spacecraft
Bus & Motor
Unknown
Mass
Unknown
Launch date (UTC)
2018-10-17 (8 years ago)
Launch vehicle
Unknown
Launch site
Air Force Eastern Test Range (AFETR)
Object type
Payload
Rocket body
Debris
Shape & HBR
Unknown shape, 1.1 m
Radar Cross Section
Medium (>0.1 m² and <1 m²)

Expand to show TLE details & history
Last TLE update: 1 year ago

TLE from 1 year ago
0 ATLAS 5 CENTAUR DEB
1 55858U 18079HL  25129.97992772 -.00000076  00000-0  00000-0 0  9991
2 55858  13.2508  67.4437 4745095 244.8244  59.3754  1.80043268 23386
Epoch: 2025-05-09T23:31Z
TLE epoch observation values (Epoch: 2025-05-09T23:31:05.755Z)
Latitude
Longitude
-153.46852°
Altitude
21,333.445 km
Speed
3.847 km/s
True Right ascension
04h 29m 20s
True Declination
0° 00' 00"
Sunlit
Object was in daylight at epoch
Visualization orbit readout
Latitude
Unknown
Longitude
Unknown
Altitude
Unknown
Speed
Unknown
Apparent Right ascension
Unknown
Apparent Declination
Unknown
Sunlit
N/A
Visualization observer readout
Local Sidereal Time
16:20:03
Azimuth
Unknown
Elevation
Unknown
Doppler factor
Unknown
Orbital elements
Apogee altitude
35,710.365 km
Perigee altitude
8,621.5 km
Semi-major axis
28,544.07 km
Eccentricity
0.47451
Inclination
13.2508°
RAAN
67.4437°
Arg. of periapsis
244.8244°
True anomaly
115.2123°
Mean anomaly
59.3754°
Eccentric anomaly
86.51244°
Mean motion
0.45006 °/min
Orbital period
799.9 mins
BSTAR
0
Loading maneuver chart data...
Computing Atmospheric mass density...

Documentation

Showing up to 5 results
|